Find Raduga-1M

NORAD ID: 32373 Int'l Des: 2007-058 Owner: KVR Country: RU operational
HEOCIRCULAR

現在のビュー

3D地球を読み込み中...

Raduga-1Mについて

説明を読み込み中...

次回通過

Passes for default location (London). Set your location on the main map for personalized predictions.

高度履歴

Loading altitude history...

軌道要素

1 32373U 07058A 26146.08725472 -.00000245 00000-0 00000-0 0 9994
2 32373 10.1279 51.9810 0001830 346.3643 216.1463 0.99400579 52176
Epoch: May 26, 2026 • Age: 13 hours

現在のステータス

高度 36026.9 km
速度 3.07 km/s
衛星直下点 6.50°N, 22.73°W
打ち上げ日 Dec 9, 2007
運用期間 18.4 years
タイプ other

技術仕様

分類 Payload
質量 2600.00 kg
乾燥質量 2500.00 kg
総質量 2600.00 kg
長さ 5.00 m
直径 2.00 m
スパン 20.00 m
形状 Step Cyl + 2 Pan
製造者 RESH/POLK
バスタイプ Globus
フェーズステータス In Orbit
所有者/国 KVR/RU

Most Searched